Weather in Lyubimovka

Russia / Kostroma Oblast     57°35′33″N   43°34′41″E
temp.,
°C
wind,
m/s
gust,
m/s
humid.,
%
clouds,
%
prec.,
mm/h
press.,
hPa
HPBL,
m
13 may, thu
thu1300:00+14se238378 0.0 102349
03:00+15ese258075 0.0 1023104
06:00+16ese2778100 0.0 1022198
09:00+19se486243 0.1 1022665
12:00+24se69477 0.0 10202206
15:00+25ese5124992 0.0 10182190
18:00+20se6125996 0.0 10171156
21:00+16se4149072 3.5 1016676
14 may, fri
fri1400:00+14s249820 0.0 101799
03:00+12ssw229949 0.0 101843
06:00+13ssw129687 0.0 1019119
09:00+17sw2376100 0.0 1019428
12:00+20sw3457100 0.0 10191008
15:00+22sw355112 0.0 10191441
18:00+21s1363100 0.0 1017199
21:00+16se228196 0.0 101818
15 may, sat
sat1500:00+15ese3681100 0.0 1016102
03:00+14se2994100 1.3 1016216
06:00+16se3995100 0.6 1014310
09:00+21s3577100 0.6 1014485
12:00+26sse475060 0.0 10121328
15:00+26s68497 0.0 10111578
18:00+21s38803 1.3 1010495
21:00+14ssw119094 8.3 101126
16 may, sun
sun1600:00+14s4129253 0.3 1011353
03:00+14s311978 0.3 1011308
06:00+14ssw4119421 0.0 1012469
09:00+17sw610725 0.0 1012863
12:00+21sw695897 0.0 10131607
15:00+21sw595546 0.1 10121731
18:00+20ssw376546 0.1 1012613
21:00+14sw238853 0.3 101346
17 may, mon
mon1700:00+13sw29950 0.0 1013198
03:00+12sw27978 0.0 1014167
06:00+14sw37895 0.0 1015224
09:00+19sw35700 0.0 1016640
12:00+22wsw34566 0.0 10161234
15:00+23wsw345198 0.0 10161502
18:00+22ssw236557 0.0 1016227
21:00+16s1178100 0.0 101711